| time (UTC) | temp C | wind direction | speed KPH | gust KPH | rain 1hr cm | rain 24hr cm | rain mn cm | humidity % | barometer mb |
| 20260509220543 | 16 | 301 | 11.3 | 19.3 | 0.00 | 0.00 | 0.00 | 76 | 1015.5 |
| 20260509220055 | 16 | 309 | 11.3 | 19.3 | 0.00 | 0.00 | 0.00 | 76 | 1015.5 |
| 20260509215545 | 16 | 286 | 11.3 | 19.3 | 0.00 | 0.00 | 0.00 | 76 | 1015.4 |
| 20260509215044 | 16 | 296 | 11.3 | 19.3 | 0.00 | 0.00 | 0.00 | 75 | 1015.4 |
| 20260509214554 | 16 | 299 | 11.3 | 20.9 | 0.00 | 0.00 | 0.00 | 75 | 1015.4 |
| 20260509214045 | 17 | 307 | 11.3 | 20.9 | 0.00 | 0.00 | 0.00 | 75 | 1015.6 |
| 20260509213543 | 17 | 294 | 11.3 | 19.3 | 0.00 | 0.00 | 0.00 | 74 | 1015.6 |
| 20260509213056 | 17 | 298 | 9.7 | 20.9 | 0.00 | 0.00 | 0.00 | 75 | 1015.7 |
| 20260509212546 | 17 | 302 | 11.3 | 20.9 | 0.00 | 0.00 | 0.00 | 75 | 1015.7 |
| 20260509212043 | 17 | 305 | 11.3 | 19.3 | 0.00 | 0.00 | 0.00 | 75 | 1015.7 |
| 20260509211551 | 17 | 312 | 9.7 | 19.3 | 0.00 | 0.00 | 0.00 | 74 | 1015.7 |
| 20260509211043 | 17 | 306 | 11.3 | 19.3 | 0.00 | 0.00 | 0.00 | 75 | 1015.8 |
| 20260509210544 | 17 | 298 | 9.7 | 17.7 | 0.00 | 0.00 | 0.00 | 74 | 1015.9 |
| 20260509210107 | 17 | 300 | 9.7 | 17.7 | 0.00 | 0.00 | 0.00 | 73 | 1016.0 |
| 20260509205543 | 17 | 311 | 8.0 | 17.7 | 0.00 | 0.00 | 0.00 | 73 | 1016.0 |
| 20260509205047 | 18 | 298 | 9.7 | 16.1 | 0.00 | 0.00 | 0.00 | 73 | 1016.1 |
| 20260509204559 | 18 | 301 | 9.7 | 16.1 | 0.00 | 0.00 | 0.00 | 73 | 1016.0 |
| 20260509204046 | 18 | 303 | 9.7 | 16.1 | 0.00 | 0.00 | 0.00 | 74 | 1016.1 |
| 20260509203542 | 18 | 298 | 9.7 | 16.1 | 0.00 | 0.00 | 0.00 | 74 | 1016.2 |
| 20260509203057 | 18 | 313 | 9.7 | 16.1 | 0.00 | 0.00 | 0.00 | 73 | 1016.2 |
| 20260509202544 | 18 | 317 | 9.7 | 16.1 | 0.00 | 0.00 | 0.00 | 74 | 1016.2 |
| 20260509202047 | 18 | 305 | 9.7 | 16.1 | 0.00 | 0.00 | 0.00 | 75 | 1016.2 |
| 20260509201556 | 17 | 299 | 9.7 | 16.1 | 0.00 | 0.00 | 0.00 | 75 | 1016.2 |
| 20260509201043 | 17 | 315 | 9.7 | 17.7 | 0.00 | 0.00 | 0.00 | 75 | 1016.3 |
| 20260509200547 | 17 | 342 | 8.0 | 17.7 | 0.00 | 0.00 | 0.00 | 75 | 1016.3 |
| 20260509200109 | 17 | 311 | 8.0 | 17.7 | 0.00 | 0.00 | 0.00 | 75 | 1016.2 |
| 20260509195549 | 17 | 303 | 9.7 | 17.7 | 0.00 | 0.00 | 0.00 | 75 | 1016.2 |
| 20260509195046 | 17 | 310 | 8.0 | 17.7 | 0.00 | 0.00 | 0.00 | 74 | 1016.3 |
| 20260509194559 | 17 | 298 | 8.0 | 14.5 | 0.00 | 0.00 | 0.00 | 75 | 1016.4 |
| 20260509194120 | 17 | 310 | 8.0 | 14.5 | 0.00 | 0.00 | 0.00 | 74 | 1016.4 |
| 20260509193543 | 17 | 311 | 8.0 | 14.5 | 0.00 | 0.00 | 0.00 | 75 | 1016.3 |
| 20260509193053 | 17 | 315 | 6.4 | 14.5 | 0.00 | 0.00 | 0.00 | 75 | 1016.4 |
| 20260509192544 | 17 | 298 | 6.4 | 12.9 | 0.00 | 0.00 | 0.00 | 74 | 1016.4 |
| 20260509192044 | 17 | 310 | 6.4 | 12.9 | 0.00 | 0.00 | 0.00 | 74 | 1016.3 |
| 20260509191547 | 17 | 312 | 6.4 | 12.9 | 0.00 | 0.00 | 0.00 | 75 | 1016.3 |
| 20260509191043 | 17 | 305 | 4.8 | 11.3 | 0.00 | 0.00 | 0.00 | 75 | 1016.4 |
| 20260509190543 | 17 | 297 | 4.8 | 11.3 | 0.00 | 0.00 | 0.00 | 75 | 1016.4 |
| 20260509190056 | 17 | 306 | 4.8 | 11.3 | 0.00 | 0.00 | 0.00 | 76 | 1016.4 |
| 20260509185544 | 17 | 312 | 4.8 | 11.3 | 0.00 | 0.00 | 0.00 | 75 | 1016.4 |
| 20260509185044 | 16 | 314 | 4.8 | 11.3 | 0.00 | 0.00 | 0.00 | 76 | 1016.4 |
| 20260509184624 | 16 | 307 | 3.2 | 8.0 | 0.00 | 0.00 | 0.00 | 75 | 1016.5 |
| 20260509184047 | 16 | 309 | 4.8 | 8.0 | 0.00 | 0.00 | 0.00 | 76 | 1016.4 |
| 20260509183543 | 16 | 310 | 3.2 | 8.0 | 0.00 | 0.00 | 0.00 | 76 | 1016.4 |
| 20260509183058 | 16 | 325 | 3.2 | 6.4 | 0.00 | 0.00 | 0.00 | 76 | 1016.4 |
| 20260509182545 | 16 | 326 | 3.2 | 8.0 | 0.00 | 0.00 | 0.00 | 77 | 1016.4 |
| 20260509182044 | 16 | 326 | 3.2 | 8.0 | 0.00 | 0.00 | 0.00 | 76 | 1016.4 |
| 20260509181551 | 15 | 327 | 3.2 | 8.0 | 0.00 | 0.00 | 0.00 | 77 | 1016.5 |
| 20260509181044 | 15 | 311 | 4.8 | 8.0 | 0.00 | 0.00 | 0.00 | 77 | 1016.4 |
| 20260509180545 | 15 | 309 | 3.2 | 8.0 | 0.00 | 0.00 | 0.00 | 78 | 1016.3 |
| 20260509180100 | 15 | 314 | 3.2 | 8.0 | 0.00 | 0.00 | 0.00 | 78 | 1016.4 |
| 20260509175545 | 15 | 324 | 3.2 | 6.4 | 0.00 | 0.00 | 0.00 | 79 | 1016.3 |
| 20260509175042 | 15 | 324 | 3.2 | 8.0 | 0.00 | 0.00 | 0.00 | 79 | 1016.4 |
| 20260509174551 | 15 | 324 | 3.2 | 8.0 | 0.00 | 0.00 | 0.00 | 79 | 1016.4 |
| 20260509174042 | 14 | 319 | 3.2 | 6.4 | 0.00 | 0.00 | 0.00 | 79 | 1016.4 |
| 20260509173543 | 14 | 303 | 3.2 | 6.4 | 0.00 | 0.00 | 0.00 | 79 | 1016.3 |
| 20260509173054 | 14 | 323 | 1.6 | 4.8 | 0.00 | 0.00 | 0.00 | 80 | 1016.3 |
| 20260509172544 | 13 | 323 | 3.2 | 4.8 | 0.00 | 0.00 | 0.00 | 81 | 1016.2 |
| 20260509172043 | 13 | 323 | 1.6 | 4.8 | 0.00 | 0.00 | 0.00 | 81 | 1016.3 |
| 20260509171549 | 13 | 323 | 1.6 | 6.4 | 0.00 | 0.00 | 0.00 | 83 | 1016.2 |
| 20260509171047 | 12 | 323 | 1.6 | 6.4 | 0.00 | 0.00 | 0.00 | 83 | 1016.1 |
| 20260509170546 | 12 | 323 | 3.2 | 6.4 | 0.00 | 0.00 | 0.00 | 84 | 1016.2 |
| 20260509170058 | 12 | 323 | 3.2 | 6.4 | 0.00 | 0.00 | 0.00 | 85 | 1016.1 |
| 20260509165543 | 11 | 323 | 3.2 | 6.4 | 0.00 | 0.00 | 0.00 | 85 | 1016.2 |
| 20260509165043 | 11 | 323 | 3.2 | 6.4 | 0.00 | 0.00 | 0.00 | 86 | 1016.3 |
| 20260509164551 | 11 | 323 | 3.2 | 6.4 | 0.00 | 0.00 | 0.00 | 86 | 1016.3 |
| 20260509164047 | 11 | 323 | 3.2 | 6.4 | 0.00 | 0.00 | 0.00 | 86 | 1016.2 |
| 20260509163545 | 11 | 323 | 3.2 | 6.4 | 0.00 | 0.00 | 0.00 | 86 | 1016.3 |
| 20260509163109 | 10 | 323 | 3.2 | 6.4 | 0.00 | 0.00 | 0.00 | 86 | 1016.2 |
| 20260509162546 | 10 | 323 | 3.2 | 6.4 | 0.00 | 0.00 | 0.00 | 86 | 1016.2 |
| 20260509162044 | 10 | 323 | 4.8 | 8.0 | 0.00 | 0.00 | 0.00 | 85 | 1016.2 |
| 20260509161550 | 10 | 323 | 4.8 | 8.0 | 0.00 | 0.00 | 0.00 | 84 | 1016.2 |
| 20260509161046 | 11 | 323 | 3.2 | 6.4 | 0.00 | 0.00 | 0.00 | 84 | 1016.2 |
| 20260509160544 | 11 | 315 | 3.2 | 6.4 | 0.00 | 0.00 | 0.00 | 83 | 1016.3 |
| 20260509160051 | 11 | 313 | 1.6 | 4.8 | 0.00 | 0.00 | 0.00 | 82 | 1016.3 |
| 20260509155543 | 11 | 313 | 3.2 | 4.8 | 0.00 | 0.00 | 0.00 | 81 | 1016.1 |
| 20260509155043 | 11 | 313 | 1.6 | 4.8 | 0.00 | 0.00 | 0.00 | 79 | 1016.1 |
| 20260509154554 | 12 | 313 | 1.6 | 4.8 | 0.00 | 0.00 | 0.00 | 77 | 1016.2 |
| 20260509154048 | 12 | 313 | 0.0 | 4.8 | 0.00 | 0.00 | 0.00 | 74 | 1016.2 |
| 20260509153544 | 13 | 0 | 1.6 | 4.8 | 0.00 | 0.00 | 0.00 | 72 | 1016.1 |
| 20260509153044 | 13 | 311 | 3.2 | 4.8 | 0.00 | 0.00 | 0.00 | 67 | 1016.2 |
| 20260509152544 | 15 | 0 | 0.0 | 3.2 | 0.00 | 0.00 | 0.00 | 68 | 1016.0 |
| 20260509152045 | 15 | 0 | 0.0 | 3.2 | 0.00 | 0.00 | 0.00 | 69 | 1016.0 |
| 20260509151557 | 14 | 0 | 0.0 | 3.2 | 0.00 | 0.00 | 0.00 | 69 | 1016.0 |
| 20260509151044 | 14 | 0 | 0.0 | 1.6 | 0.00 | 0.00 | 0.00 | 72 | 1015.9 |
| 20260509150545 | 13 | 0 | 0.0 | 1.6 | 0.00 | 0.00 | 0.00 | 73 | 1015.8 |
| 20260509150054 | 13 | 0 | 0.0 | 0.0 | 0.00 | 0.00 | 0.00 | 70 | 1015.8 |
| 20260509145544 | 12 | 0 | 0.0 | 3.2 | 0.00 | 0.03 | 0.00 | 71 | 1015.9 |
| 20260509145044 | 12 | 0 | 0.0 | 4.8 | 0.00 | 0.03 | 0.00 | 70 | 1015.7 |
| 20260509144553 | 12 | 309 | 0.0 | 4.8 | 0.00 | 0.03 | 0.00 | 70 | 1015.8 |
| 20260509144043 | 11 | 309 | 3.2 | 4.8 | 0.00 | 0.03 | 0.00 | 70 | 1015.7 |
| 20260509143543 | 11 | 309 | 3.2 | 4.8 | 0.00 | 0.03 | 0.00 | 75 | 1015.7 |
| 20260509143055 | 11 | 309 | 3.2 | 8.0 | 0.00 | 0.03 | 0.00 | 74 | 1015.6 |
| 20260509142543 | 11 | 309 | 3.2 | 8.0 | 0.00 | 0.03 | 0.00 | 74 | 1015.7 |
| 20260509142047 | 11 | 309 | 4.8 | 8.0 | 0.00 | 0.03 | 0.00 | 75 | 1015.7 |
| 20260509141559 | 11 | 302 | 4.8 | 8.0 | 0.00 | 0.03 | 0.00 | 73 | 1015.6 |
| 20260509141048 | 11 | 302 | 4.8 | 8.0 | 0.00 | 0.03 | 0.00 | 71 | 1015.4 |
| 20260509140544 | 12 | 306 | 4.8 | 8.0 | 0.00 | 0.03 | 0.00 | 67 | 1015.4 |
| 20260509135544 | 15 | 317 | 3.2 | 6.4 | 0.00 | 0.03 | 0.00 | 57 | 1015.3 |
| 20260509135044 | 15 | 318 | 3.2 | 9.7 | 0.00 | 0.03 | 0.00 | 51 | 1015.4 |
| 20260509134545 | 15 | 318 | 4.8 | 11.3 | 0.00 | 0.03 | 0.00 | 52 | 1015.3 |
| 20260509134043 | 15 | 313 | 6.4 | 11.3 | 0.00 | 0.03 | 0.00 | 53 | 1015.3 |
| 20260509133544 | 15 | 313 | 6.4 | 12.9 | 0.00 | 0.03 | 0.00 | 54 | 1015.3 |
| 20260509133051 | 14 | 318 | 6.4 | 12.9 | 0.00 | 0.03 | 0.00 | 56 | 1015.2 |
| 20260509132544 | 13 | 315 | 6.4 | 12.9 | 0.00 | 0.03 | 0.00 | 57 | 1015.3 |
| 20260509132043 | 13 | 315 | 6.4 | 12.9 | 0.00 | 0.03 | 0.00 | 58 | 1015.2 |
| 20260509131551 | 13 | 315 | 6.4 | 12.9 | 0.00 | 0.03 | 0.00 | 58 | 1015.2 |
| 20260509131043 | 12 | 313 | 8.0 | 12.9 | 0.00 | 0.03 | 0.00 | 62 | 1015.3 |
| 20260509130546 | 11 | 312 | 8.0 | 12.9 | 0.00 | 0.03 | 0.00 | 65 | 1015.3 |
| 20260509125545 | 12 | 313 | 4.8 | 9.7 | 0.00 | 0.03 | 0.00 | 68 | 1015.3 |
| 20260509125044 | 11 | 316 | 6.4 | 9.7 | 0.00 | 0.03 | 0.00 | 68 | 1015.2 |
| 20260509124552 | 10 | 311 | 6.4 | 8.0 | 0.00 | 0.03 | 0.00 | 72 | 1015.1 |
| 20260509124044 | 10 | 302 | 3.2 | 8.0 | 0.00 | 0.03 | 0.00 | 76 | 1015.1 |
| 20260509123544 | 10 | 298 | 4.8 | 8.0 | 0.00 | 0.03 | 0.00 | 78 | 1015.2 |
| 20260509123058 | 10 | 298 | 4.8 | 8.0 | 0.00 | 0.03 | 0.00 | 78 | 1015.2 |
| 20260509122543 | 10 | 309 | 4.8 | 6.4 | 0.00 | 0.03 | 0.00 | 76 | 1015.2 |
| 20260509122045 | 10 | 309 | 4.8 | 6.4 | 0.00 | 0.03 | 0.00 | 75 | 1015.2 |
| 20260509121554 | 11 | 309 | 4.8 | 8.0 | 0.00 | 0.03 | 0.00 | 73 | 1015.2 |
| 20260509121048 | 11 | 309 | 4.8 | 8.0 | 0.00 | 0.03 | 0.00 | 71 | 1015.2 |
| 20260509120544 | 11 | 308 | 4.8 | 8.0 | 0.00 | 0.03 | 0.00 | 70 | 1015.2 |
| 20260509120050 | 12 | 309 | 0.0 | 0.0 | 0.00 | 0.03 | 0.00 | 66 | 1015.3 |
| 20260509115543 | 12 | 0 | 0.0 | 0.0 | 0.00 | 0.03 | 0.00 | 64 | 1015.4 |
| 20260509115043 | 12 | 0 | 0.0 | 0.0 | 0.00 | 0.03 | 0.00 | 62 | 1015.4 |
| 20260509114550 | 13 | 0 | 0.0 | 0.0 | 0.00 | 0.03 | 0.00 | 61 | 1015.5 |
| 20260509114043 | 13 | 0 | 0.0 | 0.0 | 0.00 | 0.03 | 0.00 | 62 | 1015.4 |
| 20260509113543 | 13 | 0 | 0.0 | 0.0 | 0.00 | 0.03 | 0.00 | 62 | 1015.4 |
| 20260509113106 | 13 | 0 | 0.0 | 0.0 | 0.00 | 0.03 | 0.00 | 62 | 1015.4 |
| 20260509112545 | 13 | 0 | 0.0 | 0.0 | 0.00 | 0.03 | 0.00 | 61 | 1015.6 |
| 20260509112044 | 13 | 0 | 0.0 | 0.0 | 0.00 | 0.03 | 0.00 | 61 | 1015.5 |
| 20260509111548 | 12 | 0 | 0.0 | 4.8 | 0.00 | 0.03 | 0.00 | 62 | 1015.4 |
| 20260509111045 | 12 | 0 | 0.0 | 4.8 | 0.00 | 0.03 | 0.00 | 63 | 1015.4 |
| 20260509110547 | 12 | 23 | 3.2 | 4.8 | 0.00 | 0.03 | 0.00 | 64 | 1015.4 |
| 20260509110048 | 12 | 23 | 1.6 | 4.8 | 0.00 | 0.03 | 0.00 | 66 | 1015.4 |
| 20260509105543 | 11 | 0 | 0.0 | 3.2 | 0.00 | 0.03 | 0.00 | 68 | 1015.4 |
| 20260509105045 | 11 | 0 | 0.0 | 4.8 | 0.00 | 0.03 | 0.00 | 70 | 1015.4 |
| 20260509104556 | 10 | 314 | 1.6 | 9.7 | 0.00 | 0.03 | 0.00 | 70 | 1015.4 |
| 20260509104045 | 10 | 314 | 3.2 | 11.3 | 0.00 | 0.03 | 0.00 | 73 | 1015.6 |
| 20260509103543 | 10 | 304 | 6.4 | 11.3 | 0.00 | 0.03 | 0.00 | 74 | 1015.5 |
| 20260509103057 | 12 | 296 | 4.8 | 11.3 | 0.00 | 0.03 | 0.00 | 70 | 1015.6 |
| 20260509102544 | 13 | 321 | 4.8 | 6.4 | 0.00 | 0.03 | 0.00 | 63 | 1015.6 |
| 20260509102045 | 13 | 338 | 3.2 | 4.8 | 0.00 | 0.03 | 0.00 | 58 | 1015.6 |
| 20260509101549 | 13 | 340 | 0.0 | 3.2 | 0.00 | 0.03 | 0.00 | 59 | 1015.6 |
| 20260509101044 | 12 | 0 | 0.0 | 0.0 | 0.00 | 0.03 | 0.00 | 63 | 1015.7 |
| 20260509100544 | 12 | 0 | 0.0 | 0.0 | 0.00 | 0.03 | 0.00 | 64 | 1015.6 |
| 20260509100219 | 12 | 0 | 0.0 | 0.0 | 0.00 | 0.03 | 0.00 | 66 | 1015.6 |
| 20260509095544 | 11 | 0 | 0.0 | 0.0 | 0.00 | 0.03 | 0.00 | 67 | 1015.7 |
| 20260509095044 | 11 | 0 | 0.0 | 0.0 | 0.00 | 0.03 | 0.00 | 68 | 1015.7 |
| 20260509094554 | 11 | 0 | 0.0 | 3.2 | 0.00 | 0.03 | 0.00 | 70 | 1015.7 |
| 20260509094043 | 10 | 0 | 0.0 | 8.0 | 0.00 | 0.03 | 0.00 | 71 | 1015.8 |
| 20260509093543 | 10 | 0 | 0.0 | 8.0 | 0.00 | 0.03 | 0.00 | 71 | 1015.8 |
| 20260509093052 | 11 | 331 | 4.8 | 6.4 | 0.00 | 0.03 | 0.00 | 75 | 1015.9 |
| 20260509092547 | 11 | 316 | 3.2 | 6.4 | 0.00 | 0.03 | 0.00 | 71 | 1015.9 |
| 20260509092043 | 12 | 0 | 0.0 | 4.8 | 0.00 | 0.03 | 0.00 | 62 | 1015.9 |
| 20260509091603 | 11 | 0 | 0.0 | 8.0 | 0.00 | 0.03 | 0.00 | 62 | 1016.0 |
| 20260509091043 | 11 | 311 | 3.2 | 8.0 | 0.00 | 0.03 | 0.00 | 66 | 1016.0 |
| 20260509090543 | 11 | 311 | 4.8 | 8.0 | 0.00 | 0.03 | 0.00 | 67 | 1016.0 |
| 20260509090058 | 11 | 316 | 4.8 | 9.7 | 0.00 | 0.03 | 0.00 | 69 | 1016.0 |
| 20260509085543 | 12 | 316 | 3.2 | 12.9 | 0.00 | 0.03 | 0.00 | 67 | 1015.9 |
| 20260509085048 | 12 | 316 | 8.0 | 12.9 | 0.00 | 0.03 | 0.00 | 64 | 1015.9 |
| 20260509084550 | 12 | 316 | 6.4 | 12.9 | 0.00 | 0.03 | 0.00 | 64 | 1015.9 |
| 20260509084043 | 12 | 310 | 4.8 | 14.5 | 0.00 | 0.03 | 0.00 | 64 | 1016.0 |
| 20260509083543 | 12 | 316 | 6.4 | 14.5 | 0.00 | 0.03 | 0.00 | 65 | 1016.0 |
| 20260509083050 | 12 | 314 | 6.4 | 14.5 | 0.00 | 0.03 | 0.00 | 65 | 1016.1 |
| 20260509082544 | 12 | 331 | 6.4 | 12.9 | 0.00 | 0.03 | 0.00 | 66 | 1016.1 |
| 20260509082044 | 11 | 313 | 6.4 | 9.7 | 0.00 | 0.03 | 0.00 | 69 | 1016.1 |
| 20260509081559 | 10 | 315 | 6.4 | 9.7 | 0.00 | 0.03 | 0.00 | 74 | 1016.1 |
| 20260509081044 | 10 | 321 | 6.4 | 9.7 | 0.00 | 0.03 | 0.00 | 80 | 1016.2 |
| 20260509080543 | 9 | 320 | 6.4 | 12.9 | 0.00 | 0.03 | 0.00 | 81 | 1016.2 |
| 20260509080050 | 8 | 319 | 4.8 | 16.1 | 0.00 | 0.03 | 0.00 | 85 | 1016.2 |
| 20260509075543 | 8 | 319 | 8.0 | 16.1 | 0.00 | 0.03 | 0.00 | 85 | 1016.3 |
| 20260509075044 | 9 | 313 | 8.0 | 16.1 | 0.00 | 0.03 | 0.00 | 83 | 1016.3 |
| 20260509074549 | 10 | 317 | 6.4 | 12.9 | 0.00 | 0.03 | 0.00 | 80 | 1016.3 |
| 20260509074044 | 10 | 319 | 6.4 | 12.9 | 0.00 | 0.03 | 0.00 | 77 | 1016.3 |
| 20260509073544 | 11 | 312 | 4.8 | 12.9 | 0.00 | 0.03 | 0.00 | 75 | 1016.4 |
| 20260509073049 | 10 | 317 | 6.4 | 14.5 | 0.00 | 0.03 | 0.00 | 76 | 1016.4 |
| 20260509072543 | 10 | 312 | 6.4 | 14.5 | 0.00 | 0.03 | 0.00 | 81 | 1016.4 |
| 20260509072044 | 8 | 308 | 8.0 | 12.9 | 0.00 | 0.03 | 0.00 | 84 | 1016.4 |
| 20260509071552 | 8 | 321 | 6.4 | 12.9 | 0.00 | 0.03 | 0.00 | 86 | 1016.4 |
| 20260509071041 | 9 | 309 | 6.4 | 12.9 | 0.00 | 0.03 | 0.00 | 85 | 1016.5 |
| 20260509070544 | 9 | 313 | 6.4 | 14.5 | 0.00 | 0.03 | 0.00 | 84 | 1016.5 |
| 20260509070051 | 8 | 316 | 9.7 | 16.1 | 0.00 | 0.03 | 0.00 | 86 | 1016.5 |
| 20260509065543 | 8 | 319 | 9.7 | 17.7 | 0.00 | 0.03 | 0.03 | 86 | 1016.6 |
| 20260509065043 | 9 | 307 | 11.3 | 17.7 | 0.00 | 0.03 | 0.03 | 83 | 1016.6 |
| 20260509064550 | 10 | 306 | 12.9 | 17.7 | 0.00 | 0.03 | 0.03 | 79 | 1016.6 |
| 20260509064043 | 10 | 303 | 9.7 | 16.1 | 0.00 | 0.03 | 0.03 | 78 | 1016.7 |
| 20260509063544 | 10 | 311 | 6.4 | 12.9 | 0.00 | 0.03 | 0.03 | 81 | 1016.7 |
| 20260509063056 | 9 | 317 | 8.0 | 14.5 | 0.00 | 0.03 | 0.03 | 82 | 1016.6 |
| 20260509062545 | 10 | 314 | 9.7 | 16.1 | 0.00 | 0.03 | 0.03 | 82 | 1016.7 |
| 20260509062044 | 10 | 309 | 9.7 | 16.1 | 0.00 | 0.03 | 0.03 | 80 | 1016.8 |
| 20260509061606 | 11 | 306 | 9.7 | 16.1 | 0.00 | 0.03 | 0.03 | 78 | 1016.7 |
| 20260509061043 | 11 | 306 | 6.4 | 12.9 | 0.00 | 0.03 | 0.03 | 74 | 1016.8 |
| 20260509060541 | 12 | 315 | 8.0 | 12.9 | 0.00 | 0.03 | 0.03 | 70 | 1016.8 |
| 20260509060053 | 11 | 312 | 8.0 | 14.5 | 0.00 | 0.03 | 0.03 | 72 | 1016.8 |
| 20260509055546 | 10 | 314 | 8.0 | 14.5 | 0.00 | 0.03 | 0.03 | 81 | 1016.8 |
| 20260509055043 | 9 | 323 | 8.0 | 14.5 | 0.00 | 0.03 | 0.03 | 90 | 1016.9 |
| 20260509054558 | 8 | 313 | 6.4 | 11.3 | 0.00 | 0.03 | 0.03 | 95 | 1017.0 |
| 20260509054043 | 8 | 315 | 8.0 | 11.3 | 0.00 | 0.03 | 0.03 | 95 | 1017.0 |
| 20260509053544 | 7 | 320 | 6.4 | 9.7 | 0.00 | 0.03 | 0.03 | 95 | 1017.0 |
| 20260509053058 | 7 | 312 | 3.2 | 11.3 | 0.00 | 0.03 | 0.03 | 95 | 1017.0 |
| 20260509052543 | 7 | 315 | 4.8 | 12.9 | 0.00 | 0.03 | 0.03 | 95 | 1017.1 |
| 20260509052046 | 7 | 296 | 6.4 | 12.9 | 0.00 | 0.03 | 0.03 | 95 | 1017.1 |
| 20260509051553 | 7 | 296 | 6.4 | 12.9 | 0.00 | 0.03 | 0.03 | 95 | 1017.1 |
| 20260509051049 | 7 | 300 | 6.4 | 12.9 | 0.00 | 0.03 | 0.03 | 95 | 1017.1 |
| 20260509050544 | 7 | 297 | 6.4 | 11.3 | 0.00 | 0.03 | 0.03 | 95 | 1017.1 |
| 20260509050052 | 8 | 302 | 4.8 | 12.9 | 0.00 | 0.03 | 0.03 | 95 | 1017.0 |
| 20260509045544 | 8 | 304 | 6.4 | 12.9 | 0.00 | 0.03 | 0.03 | 95 | 1017.0 |
| 20260509045044 | 8 | 308 | 8.0 | 12.9 | 0.00 | 0.03 | 0.03 | 95 | 1016.9 |
| 20260509044556 | 8 | 309 | 8.0 | 12.9 | 0.00 | 0.03 | 0.03 | 95 | 1016.9 |
| 20260509044045 | 8 | 321 | 8.0 | 12.9 | 0.00 | 0.03 | 0.03 | 95 | 1016.9 |
| 20260509043547 | 8 | 306 | 6.4 | 12.9 | 0.00 | 0.03 | 0.03 | 95 | 1017.0 |
| 20260509043059 | 8 | 306 | 6.4 | 12.9 | 0.00 | 0.03 | 0.03 | 95 | 1016.9 |
| 20260509042543 | 8 | 304 | 8.0 | 14.5 | 0.00 | 0.03 | 0.03 | 95 | 1016.8 |
| 20260509042046 | 8 | 305 | 8.0 | 14.5 | 0.00 | 0.03 | 0.03 | 95 | 1016.8 |
| 20260509041551 | 8 | 302 | 8.0 | 14.5 | 0.00 | 0.03 | 0.03 | 94 | 1016.8 |
| 20260509041044 | 8 | 314 | 6.4 | 12.9 | 0.00 | 0.03 | 0.03 | 94 | 1016.8 |
| 20260509040543 | 8 | 309 | 6.4 | 12.9 | 0.00 | 0.03 | 0.03 | 95 | 1016.8 |
| 20260509040051 | 8 | 304 | 8.0 | 12.9 | 0.00 | 0.03 | 0.03 | 94 | 1016.8 |
| 20260509035543 | 8 | 302 | 6.4 | 12.9 | 0.00 | 0.03 | 0.03 | 94 | 1016.8 |
| 20260509035042 | 8 | 312 | 6.4 | 12.9 | 0.00 | 0.03 | 0.03 | 94 | 1016.7 |
| 20260509034602 | 8 | 313 | 6.4 | 12.9 | 0.00 | 0.03 | 0.03 | 94 | 1016.6 |
| 20260509034044 | 8 | 296 | 6.4 | 12.9 | 0.00 | 0.03 | 0.03 | 94 | 1016.6 |
| 20260509033545 | 8 | 306 | 6.4 | 12.9 | 0.00 | 0.03 | 0.03 | 94 | 1016.7 |
| 20260509033055 | 8 | 309 | 6.4 | 11.3 | 0.00 | 0.03 | 0.03 | 94 | 1016.6 |
| 20260509032543 | 9 | 323 | 6.4 | 12.9 | 0.00 | 0.03 | 0.03 | 93 | 1016.7 |
| 20260509032047 | 9 | 294 | 6.4 | 12.9 | 0.00 | 0.03 | 0.03 | 93 | 1016.6 |
| 20260509031553 | 9 | 304 | 4.8 | 11.3 | 0.00 | 0.03 | 0.03 | 93 | 1016.7 |
| 20260509031043 | 9 | 304 | 4.8 | 12.9 | 0.00 | 0.03 | 0.03 | 93 | 1016.6 |
| 20260509030543 | 9 | 309 | 4.8 | 12.9 | 0.00 | 0.03 | 0.03 | 92 | 1016.6 |
| 20260509030053 | 10 | 315 | 6.4 | 12.9 | 0.00 | 0.03 | 0.03 | 92 | 1016.6 |
| 20260509025543 | 10 | 311 | 6.4 | 11.3 | 0.00 | 0.03 | 0.03 | 91 | 1016.6 |
| 20260509025045 | 10 | 301 | 4.8 | 9.7 | 0.00 | 0.03 | 0.03 | 90 | 1016.6 |
| 20260509024553 | 10 | 306 | 4.8 | 11.3 | 0.00 | 0.03 | 0.03 | 90 | 1016.6 |
| 20260509024044 | 11 | 313 | 6.4 | 11.3 | 0.00 | 0.03 | 0.03 | 90 | 1016.6 |
| 20260509023543 | 11 | 304 | 4.8 | 11.3 | 0.00 | 0.03 | 0.03 | 89 | 1016.5 |
| 20260509023055 | 11 | 311 | 4.8 | 11.3 | 0.00 | 0.03 | 0.03 | 89 | 1016.6 |
| 20260509022545 | 11 | 300 | 4.8 | 8.0 | 0.00 | 0.03 | 0.03 | 89 | 1016.6 |
| 20260509022045 | 11 | 316 | 4.8 | 9.7 | 0.00 | 0.03 | 0.03 | 88 | 1016.6 |
| 20260509021554 | 11 | 312 | 4.8 | 11.3 | 0.00 | 0.03 | 0.03 | 88 | 1016.5 |
| 20260509021133 | 12 | 307 | 4.8 | 11.3 | 0.00 | 0.03 | 0.03 | 87 | 1016.6 |
| 20260509020544 | 12 | 310 | 4.8 | 11.3 | 0.00 | 0.03 | 0.03 | 86 | 1016.6 |
| 20260509020054 | 12 | 304 | 4.8 | 11.3 | 0.00 | 0.03 | 0.03 | 86 | 1016.6 |
| 20260509015543 | 12 | 315 | 4.8 | 11.3 | 0.00 | 0.03 | 0.03 | 86 | 1016.7 |
| 20260509015043 | 12 | 304 | 4.8 | 12.9 | 0.00 | 0.03 | 0.03 | 85 | 1016.6 |
| 20260509014553 | 13 | 300 | 6.4 | 12.9 | 0.00 | 0.03 | 0.03 | 84 | 1016.7 |
| 20260509014043 | 13 | 303 | 6.4 | 14.5 | 0.00 | 0.03 | 0.03 | 83 | 1016.7 |
| 20260509013548 | 13 | 304 | 8.0 | 14.5 | 0.00 | 0.03 | 0.03 | 83 | 1016.6 |
| 20260509013052 | 13 | 302 | 8.0 | 12.9 | 0.00 | 0.03 | 0.03 | 82 | 1016.6 |
| 20260509012545 | 13 | 300 | 6.4 | 11.3 | 0.00 | 0.03 | 0.03 | 82 | 1016.7 |
| 20260509012046 | 14 | 307 | 4.8 | 14.5 | 0.00 | 0.03 | 0.03 | 82 | 1016.7 |
| 20260509011553 | 14 | 298 | 8.0 | 14.5 | 0.00 | 0.03 | 0.03 | 82 | 1016.7 |
| 20260509011044 | 14 | 300 | 8.0 | 16.1 | 0.00 | 0.03 | 0.03 | 82 | 1016.8 |
| 20260509010543 | 14 | 306 | 8.0 | 16.1 | 0.00 | 0.03 | 0.03 | 82 | 1016.8 |
| 20260509010051 | 14 | 296 | 9.7 | 16.1 | 0.00 | 0.03 | 0.03 | 82 | 1016.8 |
| 20260509005543 | 14 | 300 | 8.0 | 16.1 | 0.00 | 0.03 | 0.03 | 82 | 1016.8 |
| 20260509005044 | 14 | 303 | 9.7 | 14.5 | 0.00 | 0.03 | 0.03 | 82 | 1016.7 |
| 20260509004549 | 14 | 306 | 6.4 | 14.5 | 0.00 | 0.03 | 0.03 | 82 | 1016.8 |
| 20260509004044 | 14 | 297 | 8.0 | 16.1 | 0.00 | 0.03 | 0.03 | 82 | 1016.9 |
| 20260509003544 | 14 | 304 | 6.4 | 16.1 | 0.00 | 0.03 | 0.03 | 82 | 1017.0 |
| 20260509003048 | 14 | 296 | 9.7 | 16.1 | 0.00 | 0.03 | 0.03 | 82 | 1016.9 |
| 20260509002543 | 14 | 302 | 11.3 | 17.7 | 0.00 | 0.03 | 0.03 | 82 | 1017.0 |
| 20260509002043 | 14 | 308 | 9.7 | 17.7 | 0.00 | 0.03 | 0.03 | 81 | 1017.0 |
| 20260509001549 | 14 | 298 | 9.7 | 17.7 | 0.00 | 0.03 | 0.03 | 80 | 1017.1 |
| 20260509001044 | 15 | 294 | 11.3 | 16.1 | 0.00 | 0.03 | 0.03 | 80 | 1017.0 |
| 20260509000543 | 15 | 302 | 8.0 | 17.7 | 0.00 | 0.03 | 0.03 | 79 | 1017.1 |
| 20260509000052 | 15 | 308 | 9.7 | 17.7 | 0.00 | 0.03 | 0.03 | 78 | 1017.0 |
| 20260508235543 | 15 | 313 | 12.9 | 17.7 | 0.00 | 0.03 | 0.03 | 78 | 1017.0 |
| 20260508235044 | 15 | 298 | 12.9 | 17.7 | 0.00 | 0.03 | 0.03 | 78 | 1017.1 |
| 20260508234556 | 16 | 315 | 12.9 | 17.7 | 0.00 | 0.03 | 0.03 | 77 | 1017.1 |
| 20260508234045 | 16 | 311 | 12.9 | 17.7 | 0.00 | 0.03 | 0.03 | 77 | 1017.2 |
| 20260508233543 | 16 | 304 | 11.3 | 16.1 | 0.00 | 0.03 | 0.03 | 77 | 1017.2 |
| 20260508233054 | 16 | 296 | 9.7 | 14.5 | 0.00 | 0.03 | 0.03 | 76 | 1017.2 |
| 20260508232546 | 16 | 300 | 9.7 | 16.1 | 0.00 | 0.03 | 0.03 | 76 | 1017.3 |
| 20260508232043 | 16 | 309 | 9.7 | 16.1 | 0.00 | 0.03 | 0.03 | 76 | 1017.3 |
| 20260508231635 | 16 | 306 | 11.3 | 16.1 | 0.00 | 0.03 | 0.03 | 76 | 1017.3 |
| 20260508231044 | 16 | 322 | 9.7 | 14.5 | 0.00 | 0.03 | 0.03 | 76 | 1017.3 |
| 20260508230544 | 16 | 323 | 9.7 | 14.5 | 0.00 | 0.03 | 0.03 | 77 | 1017.4 |
| 20260508230059 | 16 | 306 | 9.7 | 17.7 | 0.00 | 0.03 | 0.03 | 77 | 1017.4 |
| 20260508225543 | 16 | 300 | 9.7 | 17.7 | 0.00 | 0.03 | 0.03 | 77 | 1017.5 |
| 20260508225045 | 16 | 296 | 9.7 | 17.7 | 0.00 | 0.03 | 0.03 | 77 | 1017.5 |
| 20260508224550 | 16 | 307 | 9.7 | 17.7 | 0.00 | 0.03 | 0.03 | 77 | 1017.6 |
| 20260508224043 | 16 | 305 | 11.3 | 19.3 | 0.00 | 0.03 | 0.03 | 76 | 1017.6 |
| 20260508223544 | 16 | 298 | 12.9 | 19.3 | 0.00 | 0.03 | 0.03 | 76 | 1017.7 |
| 20260508223049 | 16 | 307 | 9.7 | 16.1 | 0.00 | 0.03 | 0.03 | 76 | 1017.7 |
| 20260508222544 | 16 | 304 | 9.7 | 16.1 | 0.00 | 0.03 | 0.03 | 78 | 1017.8 |
| 20260508222044 | 16 | 292 | 11.3 | 16.1 | 0.00 | 0.03 | 0.03 | 77 | 1017.9 |
| 20260508221550 | 16 | 284 | 9.7 | 14.5 | 0.00 | 0.03 | 0.03 | 77 | 1018.0 |
| 20260508221044 | 16 | 303 | 8.0 | 14.5 | 0.00 | 0.03 | 0.03 | 77 | 1018.0 |